When you browse on this site, cookies collect data to enhance your experience and personalize the content and advertising you see.
Visit our Privacy Policy to learn more. By continuing to use the site, you agree to this use of cookies and data.
  • In Lithuania
  • List of Countries
  • For 7 days
  • Water Temperature
  • Satellite Maps
  • Weather Map
  • Weather Widgets
  • user-avatar
    Login

    Hourly Weather Skeczniew

    Today, 18 February, Monday

    Time Temperature Precipitation Wind Pressure Humidity
    00:00 +5°C° 0 mm 1 mps 757 mmHg 86%
    01:00 +5°C° 0 mm 1 mps 757 mmHg 86%
    02:00 +5°C° 0 mm 1 mps 757 mmHg 85%
    03:00 +4°C° 0 mm 1 mps 756 mmHg 85%
    04:00 +4°C° 0 mm 1 mps 756 mmHg 84%
    05:00 +4°C° 0 mm 1 mps 756 mmHg 84%
    06:00 +4°C° 0 mm 1 mps 756 mmHg 84%
    07:00 +3°C° 0 mm 1 mps 756 mmHg 82%
    08:00 +3°C° 0 mm 2 mps 756 mmHg 77%
    09:00 +4°C° 0 mm 2 mps 756 mmHg 72%
    10:00 +6°C° 0 mm 2 mps 756 mmHg 67%
    11:00 +7°C° 0 mm 2 mps 756 mmHg 63%
    12:00 +8°C° 0 mm 2 mps 755 mmHg 58%
    13:00 +10°C° 0 mm 2 mps 755 mmHg 51%
    14:00 +10°C° 0 mm 2 mps 755 mmHg 53%
    15:00 +10°C° 0 mm 2 mps 754 mmHg 55%
    16:00 +9°C° 0 mm 2 mps 754 mmHg 56%
    17:00 +8°C° 0 mm 2 mps 754 mmHg 59%
    18:00 +7°C° 0 mm 2 mps 754 mmHg 62%
    19:00 +6°C° 0 mm 2 mps 753 mmHg 65%
    20:00 +5°C° 0 mm 3 mps 753 mmHg 67%
    21:00 +4°C° 0 mm 3 mps 753 mmHg 69%
    22:00 +4°C° 0 mm 3 mps 753 mmHg 70%
    23:00 +4°C° 0 mm 3 mps 753 mmHg 73%

    Tomorrow, 19 February, Tuesday

    Time Temperature Precipitation Wind Pressure Humidity
    00:00 +3°C° 0 mm 3 mps 752 mmHg 75%
    01:00 +3°C° 0 mm 3 mps 752 mmHg 78%
    02:00 +2°C° 0 mm 3 mps 752 mmHg 78%
    03:00 +2°C° 0 mm 3 mps 752 mmHg 78%
    04:00 +1°C° 0 mm 3 mps 751 mmHg 78%
    05:00 0°C° 0 mm 4 mps 751 mmHg 78%
    06:00 0°C° 0 mm 4 mps 751 mmHg 79%
    07:00 0°C° 0 mm 4 mps 751 mmHg 80%
    08:00 +1°C° 0 mm 4 mps 750 mmHg 74%
    09:00 +4°C° 0 mm 4 mps 750 mmHg 69%
    10:00 +5°C° 0 mm 5 mps 750 mmHg 63%
    11:00 +6°C° 0 mm 5 mps 750 mmHg 59%
    12:00 +8°C° 0 mm 5 mps 750 mmHg 54%
    13:00 +9°C° 0 mm 6 mps 749 mmHg 50%
    14:00 +9°C° 0 mm 5 mps 749 mmHg 53%
    15:00 +9°C° 0 mm 5 mps 749 mmHg 56%
    16:00 +10°C° 0 mm 4 mps 749 mmHg 59%
    17:00 +8°C° 0 mm 4 mps 749 mmHg 65%
    18:00 +7°C° 0 mm 5 mps 749 mmHg 71%
    19:00 +7°C° 0 mm 5 mps 750 mmHg 77%
    20:00 +6°C° 0.2 mm 5 mps 750 mmHg 81%
    21:00 +5°C° 0.2 mm 4 mps 750 mmHg 84%
    22:00 +5°C° 0.2 mm 4 mps 750 mmHg 88%
    23:00 +3°C° 0 mm 5 mps 750 mmHg 87%

    Day after tomorrow, 20 February, Wednesday

    Time Temperature Precipitation Wind Pressure Humidity
    00:00 +3°C° 0 mm 5 mps 750 mmHg 86%
    01:00 +3°C° 0 mm 5 mps 751 mmHg 84%
    02:00 +2°C° 0 mm 6 mps 751 mmHg 86%
    03:00 +2°C° 0 mm 6 mps 751 mmHg 88%
    04:00 +2°C° 0 mm 6 mps 751 mmHg 89%
    05:00 +2°C° 0 mm 6 mps 751 mmHg 89%
    06:00 +2°C° 0 mm 6 mps 751 mmHg 88%
    07:00 +2°C° 0 mm 6 mps 752 mmHg 87%
    08:00 +3°C° 0.1 mm 6 mps 752 mmHg 84%
    09:00 +3°C° 0.1 mm 6 mps 752 mmHg 81%
    10:00 +3°C° 0.1 mm 7 mps 753 mmHg 78%
    11:00 +3°C° 0.1 mm 7 mps 753 mmHg 76%
    12:00 +4°C° 0.1 mm 7 mps 753 mmHg 74%
    13:00 +4°C° 0.1 mm 7 mps 754 mmHg 72%
    14:00 +4°C° 0 mm 7 mps 754 mmHg 72%
    15:00 +4°C° 0 mm 6 mps 754 mmHg 72%
    16:00 +4°C° 0 mm 6 mps 754 mmHg 72%
    17:00 +5°C° 0 mm 5 mps 754 mmHg 75%
    18:00 +5°C° 0 mm 5 mps 754 mmHg 77%
    19:00 +4°C° 0 mm 4 mps 755 mmHg 80%
    20:00 +4°C° 0 mm 4 mps 755 mmHg 83%
    21:00 +4°C° 0 mm 4 mps 755 mmHg 85%
    22:00 +4°C° 0 mm 4 mps 755 mmHg 88%
    23:00 +4°C° 0 mm 4 mps 755 mmHg 88%

    21 February, Thursday

    Time Temperature Precipitation Wind Pressure Humidity
    00:00 +4°C° 0 mm 4 mps 755 mmHg 89%
    01:00 +4°C° 0 mm 4 mps 755 mmHg 90%
    02:00 +4°C° 0.1 mm 4 mps 755 mmHg 88%
    03:00 +4°C° 0.1 mm 4 mps 755 mmHg 87%
    04:00 +3°C° 0.1 mm 4 mps 755 mmHg 86%
    05:00 +3°C° 0.3 mm 5 mps 754 mmHg 87%
    06:00 +3°C° 0.3 mm 5 mps 754 mmHg 88%
    07:00 +3°C° 0.3 mm 6 mps 754 mmHg 89%
    08:00 +3°C° 0.2 mm 6 mps 754 mmHg 88%
    09:00 +4°C° 0.2 mm 6 mps 754 mmHg 88%
    10:00 +4°C° 0.2 mm 6 mps 754 mmHg 88%
    11:00 +4°C° 0.8 mm 6 mps 754 mmHg 88%
    12:00 +4°C° 0.8 mm 6 mps 754 mmHg 88%
    13:00 +5°C° 0.8 mm 7 mps 754 mmHg 88%
    14:00 +5°C° 0.2 mm 7 mps 754 mmHg 89%
    15:00 +5°C° 0.2 mm 7 mps 754 mmHg 89%
    16:00 +5°C° 0.2 mm 7 mps 754 mmHg 89%
    17:00 +5°C° 0.1 mm 6 mps 754 mmHg 90%
    18:00 +5°C° 0.1 mm 6 mps 755 mmHg 91%
    19:00 +5°C° 0.1 mm 6 mps 755 mmHg 91%
    20:00 +5°C° 0 mm 6 mps 755 mmHg 90%
    21:00 +4°C° 0 mm 6 mps 756 mmHg 90%
    22:00 +4°C° 0 mm 6 mps 756 mmHg 89%
    23:00 +3°C° 0.1 mm 6 mps 757 mmHg 87%

    22 February, Friday

    Time Temperature Precipitation Wind Pressure Humidity
    00:00 +3°C° 0.1 mm 6 mps 758 mmHg 86%
    01:00 +2°C° 0.1 mm 6 mps 759 mmHg 85%
    02:00 +1°C° 0 mm 6 mps 759 mmHg 82%
    03:00 +1°C° 0 mm 5 mps 760 mmHg 80%
    04:00 0°C° 0 mm 5 mps 761 mmHg 78%
    05:00 -1°C° 0 mm 4 mps 762 mmHg 76%
    06:00 -2°C° 0 mm 4 mps 763 mmHg 74%
    07:00 -2°C° 0 mm 4 mps 764 mmHg 72%
    08:00 -2°C° 0 mm 4 mps 765 mmHg 66%
    09:00 -2°C° 0 mm 4 mps 766 mmHg 60%
    10:00 -1°C° 0 mm 4 mps 767 mmHg 53%
    11:00 -1°C° 0 mm 4 mps 767 mmHg 51%
    12:00 0°C° 0 mm 4 mps 767 mmHg 49%
    13:00 0°C° 0 mm 4 mps 768 mmHg 47%
    14:00 0°C° 0 mm 4 mps 768 mmHg 46%
    15:00 0°C° 0 mm 4 mps 768 mmHg 45%
    16:00 0°C° 0 mm 4 mps 769 mmHg 44%
    17:00 0°C° 0 mm 3 mps 769 mmHg 48%
    18:00 -1°C° 0 mm 3 mps 770 mmHg 51%
    19:00 -2°C° 0 mm 2 mps 770 mmHg 55%
    20:00 -2°C° 0 mm 2 mps 771 mmHg 54%
    21:00 -2°C° 0 mm 2 mps 771 mmHg 53%
    22:00 -2°C° 0 mm 2 mps 772 mmHg 52%
    23:00 -2°C° 0 mm 2 mps 772 mmHg 52%

    23 February, Saturday

    Time Temperature Precipitation Wind Pressure Humidity
    00:00 -2°C° 0 mm 2 mps 772 mmHg 51%
    01:00 -2°C° 0 mm 2 mps 771 mmHg 50%
    02:00 -2°C° 0 mm 2 mps 771 mmHg 50%
    03:00 -2°C° 0 mm 2 mps 771 mmHg 51%
    04:00 -2°C° 0 mm 2 mps 771 mmHg 51%
    05:00 -2°C° 0 mm 2 mps 770 mmHg 51%
    06:00 -2°C° 0 mm 2 mps 770 mmHg 52%
    07:00 -2°C° 0 mm 2 mps 770 mmHg 52%
    08:00 -1°C° 0 mm 2 mps 770 mmHg 47%
    09:00 0°C° 0 mm 3 mps 769 mmHg 43%
    10:00 +1°C° 0 mm 3 mps 769 mmHg 39%
    11:00 +1°C° 0 mm 3 mps 768 mmHg 37%
    12:00 +2°C° 0 mm 3 mps 768 mmHg 35%
    13:00 +3°C° 0 mm 4 mps 767 mmHg 34%
    14:00 +3°C° 0 mm 4 mps 767 mmHg 38%
    15:00 +3°C° 0 mm 3 mps 766 mmHg 41%
    16:00 +3°C° 0 mm 3 mps 766 mmHg 45%
    17:00 +3°C° 0 mm 3 mps 765 mmHg 52%
    18:00 +2°C° 0 mm 3 mps 765 mmHg 59%
    19:00 +2°C° 0 mm 3 mps 765 mmHg 65%
    20:00 +2°C° 0 mm 3 mps 765 mmHg 72%
    21:00 +2°C° 0 mm 3 mps 765 mmHg 78%
    22:00 +2°C° 0 mm 3 mps 765 mmHg 85%
    23:00 +2°C° 0 mm 3 mps 765 mmHg 88%
    Show more